Location: Newark
(52.4787°S, 179.0532°W)
Time: 19:43:07
(UTC+00:00)

Transit 4A - All Passes

Search period start: 21 November 2019 00:00
Search period end: 01 December 2019 00:00
Orbit: 869 x 976 km, 66.8° (Epoch: 21 November)

Date Brightness Start Highest point End Pass type
(mag) Time Alt. Az. Time Alt. Az. Time Alt. Az.
21 Nov - 01:07:02 10° WSW 01:11:51 23° S 01:16:48 10° SE daylight
21 Nov - 02:55:17 10° SW 03:00:22 25° SSE 03:05:31 10° ESE daylight
21 Nov - 04:41:58 10° SW 04:48:09 53° SE 04:54:25 10° ENE daylight
21 Nov - 06:28:32 10° SW 06:34:34 47° WNW 06:40:38 10° N daylight
21 Nov - 19:57:22 10° NE 20:01:08 17° ENE 20:04:59 10° ESE daylight
21 Nov - 21:40:32 10° NNW 21:46:31 77° NE 21:52:44 10° SE daylight
21 Nov - 23:27:55 10° W 23:33:28 36° SSW 23:39:13 10° SE daylight
22 Nov - 01:16:56 10° SW 01:21:40 22° S 01:26:30 10° SE daylight
22 Nov - 03:04:47 10° SW 03:10:06 28° SSE 03:15:31 10° E daylight
22 Nov - 04:51:19 10° SW 04:57:38 67° SE 05:04:01 10° NE daylight
22 Nov - 06:38:05 10° SW 06:43:44 34° WNW 06:49:23 10° N daylight
22 Nov - 20:05:26 10° NNE 20:10:08 25° ENE 20:14:58 10° ESE daylight
22 Nov - 21:49:50 10° NW 21:55:51 82° SW 22:02:08 10° SE daylight
22 Nov - 23:37:47 10° W 23:43:08 31° SSW 23:48:38 10° SE daylight
23 Nov - 01:26:46 10° SW 01:31:30 22° S 01:36:18 10° SE daylight
23 Nov - 03:14:14 10° SW 03:19:50 32° SSE 03:25:30 10° E daylight
23 Nov - 05:00:41 10° SW 05:07:03 85° SE 05:13:30 10° NE daylight
23 Nov - 06:47:47 10° SW 06:52:49 25° WNW 06:57:53 10° NNW daylight
23 Nov - 20:13:55 10° N 20:19:12 34° ENE 20:24:41 10° SE daylight
23 Nov - 21:59:17 10° NW 22:05:17 64° SW 22:11:30 10° SE daylight
23 Nov - 23:47:43 10° WSW 23:52:51 27° SSW 23:58:08 10° SE daylight
24 Nov - 01:36:31 10° SW 01:41:19 22° S 01:46:12 10° ESE daylight
24 Nov - 03:23:37 10° SW 03:29:29 38° SSE 03:35:24 10° E daylight
24 Nov - 05:10:03 10° SW 05:16:24 75° NW 05:22:48 10° NNE daylight
24 Nov - 06:57:45 10° WSW 07:01:50 18° WNW 07:05:57 10° NW daylight
24 Nov - 20:22:40 10° N 20:28:22 47° ENE 20:34:15 10° SE daylight
24 Nov - 22:08:54 10° WNW 22:14:46 50° SW 22:20:52 10° SE daylight
24 Nov - 23:57:41 10° WSW 00:02:37 24° SSW 00:07:40 10° SE daylight
25 Nov - 01:46:09 10° SW 01:51:07 24° SSE 01:56:10 10° ESE daylight
25 Nov - 03:33:00 10° SW 03:39:04 46° SE 03:45:13 10° ENE daylight
25 Nov - 05:19:29 10° SW 05:25:41 56° WNW 05:31:56 10° NNE daylight
25 Nov - 07:08:21 10° WSW 07:10:47 12° W 07:13:14 10° WNW daylight
25 Nov - 18:49:34 10° NE 18:52:25 14° E 18:55:20 10° ESE daylight
25 Nov - 20:31:40 10° NNW 20:37:35 64° ENE 20:43:44 10° SE daylight
25 Nov - 22:18:37 10° WNW 22:24:19 41° SW 22:30:15 10° SE daylight
26 Nov - 00:07:37 10° WSW 00:12:25 23° S 00:17:19 10° SE daylight
26 Nov - 01:55:43 10° SW 02:00:54 26° SSE 02:06:10 10° ESE daylight
26 Nov - 03:42:21 10° SW 03:48:36 57° SE 03:54:55 10° ENE daylight
26 Nov - 05:28:59 10° SW 05:34:54 42° WNW 05:40:51 10° N daylight
26 Nov - 18:57:11 10° NNE 19:01:23 20° ENE 19:05:39 10° ESE daylight
26 Nov - 20:40:51 10° NW 20:46:53 85° NE 20:53:09 10° SE daylight
26 Nov - 22:28:27 10° W 22:33:58 34° SSW 22:39:39 10° SE daylight
27 Nov - 00:17:30 10° SW 00:22:14 22° S 00:27:03 10° SE daylight
27 Nov - 02:05:12 10° SW 02:10:39 29° SSE 02:16:09 10° E daylight
27 Nov - 03:51:42 10° SW 03:58:03 73° SE 04:04:29 10° NE daylight
27 Nov - 05:38:35 10° SW 05:44:02 31° WNW 05:49:31 10° N daylight
27 Nov - 19:05:26 10° NNE 19:10:24 28° ENE 19:15:32 10° SE daylight
27 Nov - 20:50:13 10° NW 20:56:15 75° SW 21:02:32 10° SE daylight
27 Nov - 22:38:22 10° W 22:43:39 29° SSW 22:49:05 10° SE daylight
28 Nov - 00:27:18 10° SW 00:32:03 22° S 00:36:53 10° SE daylight
28 Nov - 02:14:37 10° SW 02:20:20 34° SSE 02:26:06 10° E daylight
28 Nov - 04:01:04 10° SW 04:07:27 88° WNW 04:13:54 10° NE daylight
28 Nov - 05:48:21 10° WSW 05:53:06 22° WNW 05:57:52 10° NNW daylight
28 Nov - 19:14:02 10° N 19:19:30 38° ENE 19:25:10 10° SE daylight
28 Nov - 20:59:44 10° WNW 21:05:42 58° SW 21:11:54 10° SE daylight
28 Nov - 22:48:18 10° WSW 22:53:23 26° SSW 22:58:35 10° SE daylight
29 Nov - 00:37:00 10° SW 00:41:52 23° S 00:46:48 10° ESE daylight
29 Nov - 02:24:01 10° SW 02:29:58 40° SE 02:35:59 10° ENE daylight
29 Nov - 04:10:27 10° SW 04:16:47 68° WNW 04:23:09 10° NNE daylight
29 Nov - 05:58:28 10° WSW 06:02:05 16° WNW 06:05:44 10° NW daylight
29 Nov - 17:42:40 10° ENE 17:43:45 10° E 17:44:49 10° E daylight
29 Nov - 19:22:53 10° NNW 19:28:41 53° ENE 19:34:42 10° SE daylight
29 Nov - 21:09:23 10° WNW 21:15:13 46° SW 21:21:16 10° SE daylight
29 Nov - 22:58:15 10° WSW 23:03:09 24° SSW 23:08:10 10° SE daylight
30 Nov - 00:46:37 10° SW 00:51:40 24° SSE 00:56:48 10° ESE daylight
30 Nov - 02:33:22 10° SW 02:39:32 50° SE 02:45:45 10° ENE daylight
30 Nov - 04:19:54 10° SW 04:26:02 51° WNW 04:32:12 10° NNE daylight
30 Nov - 06:09:47 10° W 06:11:01 11° W 06:12:14 10° WNW daylight
30 Nov - 17:49:12 10° NE 17:52:39 16° ENE 17:56:10 10° ESE daylight
30 Nov - 19:31:57 10° NNW 19:37:56 71° ENE 19:44:09 10° SE daylight
30 Nov - 21:19:09 10° W 21:24:48 38° SSW 21:30:39 10° SE daylight
30 Nov - 23:08:11 10° WSW 23:12:58 22° S 23:17:50 10° SE daylight
